This is the latest recevied weather packets stored in our database for station/object K7ZQU-7. If no packets are shown the sender has not sent any weather packets the latest 10 day(s).
| Time | Temp. | Humidity | Pressure | Rain* | Wind** | Luminosity | Snow |
|---|---|---|---|---|---|---|---|
| 1777738753 | 11.11° C | 67% | 1013.8 hPa | 0 mm | 2.24 m/s, 34° | - | - |
| 1777738452 | 11.11° C | 70% | 1013.8 hPa | 0 mm | 0.89 m/s, 160° | - | - |
| 1777738153 | 10.56° C | 69% | 1013.9 hPa | 0 mm | 1.34 m/s, 160° | - | - |
| 1777737854 | 11.11° C | 70% | 1013.8 hPa | 0 mm | 1.34 m/s, 179° | - | - |
| 1777737555 | 10.56° C | 71% | 1013.8 hPa | 0 mm | 1.34 m/s, 90° | - | - |
| 1777737255 | 10.56° C | 75% | 1013.7 hPa | 0 mm | 1.79 m/s, 105° | - | - |
| 1777736954 | 10° C | 76% | 1013.7 hPa | 0 mm | 0.89 m/s, 217° | - | - |
| 1777736355 | 9.44° C | 78% | 1013.9 hPa | 0 mm | 0 m/s | - | - |
| 1777736056 | 9.44° C | 77% | 1013.7 hPa | 0 mm | 0.45 m/s, 107° | - | - |
| 1777735757 | 9.44° C | 77% | 1013.8 hPa | 0 mm | 1.34 m/s, 183° | - | - |
| 1777735456 | 9.44° C | 77% | 1013.6 hPa | 0 mm | 0.89 m/s, 219° | - | - |
| 1777735156 | 8.89° C | 78% | 1013.4 hPa | 0 mm | 1.34 m/s, 195° | - | - |
| 1777734567 | 8.89° C | 80% | 1013.3 hPa | 0 mm | 1.34 m/s, 152° | - | - |
| 1777733957 | 8.89° C | 82% | 1013.2 hPa | 0 mm | 0 m/s | - | - |
| 1777733659 | 8.33° C | 81% | 1013.1 hPa | 0 mm | 0.89 m/s, 173° | - | - |
| 1777733359 | 8.33° C | 83% | 1013.1 hPa | 0 mm | 0 m/s | - | - |
| 1777732761 | 8.33° C | 83% | 1013.1 hPa | 0 mm | 1.34 m/s, 176° | - | - |
| 1777732459 | 8.33° C | 84% | 1013.1 hPa | 0 mm | 1.34 m/s, 149° | - | - |
| 1777732160 | 7.78° C | 84% | 1013.3 hPa | 0 mm | 0.89 m/s, 203° | - | - |
| 1777731861 | 7.78° C | 85% | 1013.1 hPa | 0 mm | 1.34 m/s, 186° | - | - |
| 1777731562 | 7.22° C | 88% | 1013.3 hPa | 0 mm | 0.89 m/s, 176° | - | - |
| 1777731263 | 7.22° C | 89% | 1013.1 hPa | 0 mm | 0.45 m/s, 256° | - | - |
| 1777730961 | 6.67° C | 91% | 1013.1 hPa | 0 mm | 0 m/s | - | - |
| 1777730662 | 6.67° C | 91% | 1013 hPa | 0 mm | 1.34 m/s, 229° | - | - |
| 1777730363 | 6.67° C | 91% | 1013 hPa | 0 mm | 0 m/s | - | - |
* Rain latest hour (hover to see other rain measurements)
** Current wind speed in m/s (hover to see current wind gust speed)